Regional Weather Roundup
Issued by NWS Wakefield, VA

Home | Current Version | Previous Version | Text Only | Print | Product List | Glossary Off
Versions: 1 2 3 4 5 6 7 8 9 10 11 12 13 14 15 16 17 18 19 20 21 22 23 24 25 26

000
ASUS41 KAKQ 230214
RWRAKQ

REGIONAL WEATHER ROUNDUP
NATIONAL WEATHER SERVICE WAKEFIELD VA
900 PM EST WED FEB 22 2017

Note: "fair" indicates few or no clouds below 12,000 feet with no
significant weather and/or obstructions to visibility. * = Denotes
station may not report precipitation (e.g., rain,snow,etc.),
thunder or fog.

VAZ042-051-052>054-056-230300-
NORTHERN VIRGINIA

CITY           SKY/WX    TMP DP  RH WIND       PRES   REMARKS
WASH NATIONAL  MOCLDY    53  49  86 S8        29.92R
DULLES         CLOUDY    53  46  77 SE5       29.90S
FORT BELVOIR   PTCLDY    50  45  83 CALM      29.91S
QUANTICO       PTCLDY    50  49  96 S8        29.93S
FREDERICKSBRG* CLOUDY    56  54  92 S6        29.91F
STAFFORD*      MOCLDY    55  53  96 S5        29.95F
WARRENTON      CLOUDY    57  50  78 S5        29.90S
CULPEPER*      MOCLDY    57  53  86 S3        29.92R
MANASSAS*      PTCLDY    55  51  86 S5        29.91S
LEESBURG*      PTCLDY    55  52  88 MISG      29.91R
WINCHESTER     CLOUDY    54  46  76 S6        29.88S
FRONT ROYAL*   PTCLDY    55  48  76 CALM      29.88S
LURAY*         CLOUDY    55  52  88 SW3       29.89S
$$

VAZ048-049-060>072-079>083-230300-
CENTRAL AND SOUTH CENTRAL VIRGINIA

CITY           SKY/WX    TMP DP  RH WIND       PRES   REMARKS
RICHMOND       CLOUDY    53  53 100 S5        29.95S FOG
CHESTERFIELD*  CLOUDY    54  39  58 CALM      29.97R
PETERSBURG*    CLOUDY    52  51  95 CALM      29.96S
HANOVER        CLOUDY    55  51  86 S7        29.96S
TAPPAHANNOCK*  CLOUDY    56  56 100 S6        29.95S
QUINTON*       CLOUDY    54  54 100 CALM      29.95S
CHARLOTTSVILLE CLOUDY    56  53  90 S9        29.91S
GORDONSVILLE*  CLOUDY    56  55  95 SW8       29.91S
ORANGE*        CLOUDY    55  52  88 S6        29.93R
LOUISA*        MOCLDY    59  55  88 S5        29.91F
BUMPASS*       CLOUDY    55  55  99 S8        29.92F
FARMVILLE*     CLOUDY    55  55 100 CALM      29.94S
CREWE*         CLOUDY    55  55 100 CALM      29.95S
FORT PICKETT*  CLOUDY    52  49  88 S9        29.96S
CHASE CITY*    CLOUDY    53  51  94 CALM      29.96S
CLARKSVILLE*   CLOUDY    54  54 100 CALM      29.95S
SOUTH HILL*    CLOUDY    54  54 100 CALM      30.01F
LAWRENCEVILLE* CLOUDY    54  53  97 CALM      29.95F
EMPORIA*       DRIZZLE   52  52 100 CALM      29.97F
$$

VAZ088>098-230300-
SOUTHEAST VIRGINIA

CITY           SKY/WX    TMP DP  RH WIND       PRES   REMARKS
NORFOLK        CLOUDY    57  51  80 SE5       29.96S
VIRGINIA BEACH CLOUDY    56  48  74 E5        29.96S
NORFOLK NAVAL  CLOUDY    57  50  77 E3        29.98S
WEST POINT*    CLOUDY    55  53  94 S7        29.97R
SALUDA*        CLOUDY    55  55 100 S5        29.95S
NEWPORT NEWS   CLOUDY    54  53  97 SE3       29.97R
LANGLEY AFB    CLOUDY    55  55  99 SE6       29.96S
FORT EUSTIS    CLOUDY    54  52  93 SE3       29.94S
WILLIAMSBURG*  CLOUDY    55  55 100 CALM      29.97S
HR EXEC AP*    FAIR      55  48  76 E3        29.95S
FRANKLIN*      PTCLDY    54  52  93 CALM      29.97S
US460-WAKEFLD  CLOUDY    54  53  97 CALM      29.96S
$$

VAZ020-022-025-037-045-230300-
WEST CENTRAL AND SOUTHWEST VIRGINIA

CITY           SKY/WX    TMP DP  RH WIND       PRES   REMARKS
STAUNTON*      CLOUDY    54  50  86 SW5       29.93S
WAYNESBORO*    CLOUDY    55  50  83 SW5       29.92S
HOT SPRINGS VA CLOUDY    50  50 100 W10       29.95S
LYNCHBURG      FOG      N/A N/A N/A SW5       29.95S VSB 1/4
DANVILLE       LGT RAIN  53  53 100 SW5       29.95S VSB 1/2
SOUTH BOSTON*  CLOUDY    53  52  95 CALM      29.96R
MARTINSVILLE   CLOUDY    53  52  97 CALM      29.97S FOG
ROANOKE        CLOUDY    52  51  97 CALM      29.96S FOG
BLACKSBURG     FOG       47  47 100 CALM      29.98S VSB 1/4
DUBLIN*        FOG       50  50 100 CALM      29.96S VSB<1/4
MARION*        FOG       51  50  96 CALM      29.98S VSB 1/4
HILLSVILLE*    CLOUDY    51  51 100 S5        29.95S
RICHLANDS*     FAIR      54  51  90 SE5       29.93S
WISE*          PTCLDY    54  54 100 CALM      29.94S
ABINGDON*      PTCLDY    53  53  99 E3        29.93S FOG
$$

MDZ021>025-VAZ099-100-230300-
SOUTHERN MARYLAND AND THE DELMARVA PENINSULA

CITY           SKY/WX    TMP DP  RH WIND       PRES   REMARKS
PATUXENT RIVER MOCLDY    54  54 100 S3        29.93S
BAY BRIDGE APT CLOUDY    50  48  93 S7        29.92S
LEONARDTOWN    MOCLDY    54  52  94 SW3       29.94S
DOVER          CLOUDY    49  49 100 S3        29.92S
GEORGETOWN     PTCLDY    52  49  89 SW7       29.94S
EASTON         CLEAR     54  50  87 S5        29.97S
CAMBRIDGE      CLOUDY    52  52 100 S6        29.94S
SALISBURY      CLOUDY    55  54  96 S6        29.94S
OCEAN CITY     CLOUDY    57  53  86 SW9G18    29.95S
WALLOPS ISLAND CLOUDY    54  54 100 S7        29.96F
ACCOMACK*      CLOUDY    56  55  94 S7        29.96S
$$

NCZ012>017-030>032-230300-
NORTH CENTRAL AND EASTERN NORTH CAROLINA

CITY           SKY/WX    TMP DP  RH WIND       PRES   REMARKS
ROANOKE RAPIDS FAIR      54  52  94 CALM      29.96S
RALEIGH        CLOUDY    59  53  80 E3        29.95R
ELIZABETH CITY CLOUDY    60  51  72 SE6       29.97S
AHOSKIE*         N/A     57  52  85 CALM      29.96S
EDENTON*       CLOUDY    62  53  72 S5        29.97S
CURRITUCK*     CLOUDY    57  50  78 CALM      29.98R
KILL DEVIL HLS NOT AVBL
MANTEO         CLOUDY    60  50  69 S6        29.98S
CAPE HATTERAS  CLOUDY    66  55  67 S8        29.98R
TARBORO*       NOT AVBL
GOLDSBORO      CLOUDY    64  56  74 S6        29.94S
WASHINGTON     MOCLDY    60  53  77 SE3       29.97S
GREENVILLE     CLOUDY    64  54  68 S7        29.98S
NEW BERN       CLOUDY    57  53  86 CALM      29.97S
WILMINGTON     CLOUDY    59  54  83 E3        29.96R
$$

VAZ048-230300-
ELSEWHERE

CITY           SKY/WX    TMP DP  RH WIND       PRES   REMARKS
HARRISBURG PA  CLOUDY    47  42  83 SE5       29.89S
BALTIMORE      CLOUDY    51  46  83 CALM      29.91S
ANNAPOLIS      CLOUDY    51  48  89 S5        29.92S
ANDREWS AFB    PTCLDY    53  49  88 S7        29.90S
PHILADELPHIA   CLOUDY    52  44  74 SW6       29.94R
GREENSBORO     CLOUDY    55  55 100 N5        29.95R FOG
ROCKY MOUNT    MOCLDY    59  54  83 CALM      29.95S
$$

VAZ100-230300-
MARINE

STATION/POSITION TIME  TEMP    WIND        PRES    WAVE   SWELL
                       AIR SEA DIR/SP/G            HT/PER HT/PER
                 (UTC) (F)     (DEG/KT/KT) (MB)    (FT/S) (FT/S)
CAPE MAY NJ      0148   52 42  170/  6/  8 1013.4F
LEWES DE         0148   55 43  210/  4/  5 1013.6S
OCEAN-CITY-INLET 0148   51 44  220/  9/ 11 1014.7R
WACHAPREAGUE VA  0130   53 51  210/  2/  3 1014.6F
THOMAS POINT MD  0200   47 43  180/  5/  6   N/A
GOOSES REEF MD   0200   47 44  170/ 10/ 10 1013.9    1
COVE POINT MD    0130   48     180/  7/  9 1014.1R
SOLOMONS ISLAND  0148   53 44  180/  4/  5   N/A
BISHOPS HEAD MD  0148   51 49  190/ 12/ 13 1014.0S
PINEY POINT MD   0142          150/  2/  2   N/A
POTOMAC MD       0200   49 43  220/  6/  8 1012.8    0
CAMBRIDGE MD     0148   52 42  170/  5/  7 1013.0F
LEWISETTA VA     0148   56 45  220/  9/ 11 1013.4F
RAPPAHANNOCK LGT 0142          160/ 11/ 12 1015.0R
YORK RVR RNG VA  0130   50     140/ 12/ 12 1013.7F
YORKTOWN VA      0148   54 47  160/  2/  4 1014.3S
JAMESTOWN VA     0200   53 51  130/  6/  8   N/A     0
DOMINION TERM VA 0148   54      70/  6/  7 1014.9R
KIPTOPEKE VA     0148      47  160/  2/  4   N/A
CHES BAY BRIDGE  0148   55 47  130/  7/ 10 1014.7R
CAPE HENRY VA    0148   57     140/  7/  8   N/A
WILLOUBY STN VA  0148   55     100/  5/  6 1015.7R
S CRANEY ISL VA  0148   56     130/  2/  4 1014.5R
CAPE HENRY BUOY  0142      49                N/A     3/11   2/11
OFFSHORE WE BUOY 0151      48                N/A     3/ 9   2/11
64NM E OF VA BCH 0150   58 54  180/  6/  6 1015.1R   4/11   3/11
DUCK PIER NC     0130   54 48  150/  9/  9 1014.5R
44100 DUCK FRF   0105      48                N/A     3/10   2/11
44056 DUCK FRF   0130      50                N/A     3/11   2/11
OREGON INLET NC  0148          100/  4/  5   N/A
HATTERAS NC      0148   65 60  170/  4/  7 1014.7R
DIAMOND SHLS NC  0150   69 74  170/ 10/ 16 1015.2R   4/10   3/10
CAPE LOOKOUT NC  0200   64     140/  8/  9 1014.6R
$$




USA.gov is the U.S. government's official web portal to all federal, state and local government web resources and services.